Location: Vancouver
(49.2500°N, 123.1330°W)
Time: 00:25:29
(UTC-07:00)

S-56A Canister/Altair - Visible Passes

Search period start: 26 September 2017 00:00
Search period end: 06 October 2017 00:00
Orbit: 635 x 2498 km, 38.9° (Epoch: 25 September)

Date Brightness Start Highest point End Pass type
(mag) Time Alt. Az. Time Alt. Az. Time Alt. Az.
26 Sep 11.0 01:19:59 21° ESE 01:19:59 21° ESE 01:24:04 10° ESE visible
26 Sep 10.0 03:17:29 47° S 03:17:29 47° S 03:29:47 10° SE visible
26 Sep 10.4 05:14:58 24° WSW 05:20:42 31° SW 05:32:46 10° SSE visible
27 Sep 11.4 00:49:53 12° ESE 00:49:53 12° ESE 00:50:35 10° E visible
27 Sep 10.3 02:47:23 38° SSE 02:47:23 38° SSE 02:56:32 10° ESE visible
27 Sep 10.3 04:44:53 31° SW 04:47:38 33° SSW 05:00:03 10° SSE visible
28 Sep 10.8 02:17:24 27° SE 02:17:24 27° SE 02:23:13 10° ESE visible
28 Sep 10.2 04:14:54 35° SSW 04:14:54 35° SSW 04:27:13 10° SSE visible
28 Sep 10.9 06:12:25 11° WSW 06:18:35 15° SW 06:25:33 10° SSW visible
28 Sep 10.2 21:23:55 10° S 21:24:27 12° S 21:24:27 12° S visible
29 Sep 11.2 01:47:31 16° ESE 01:47:31 16° ESE 01:49:50 10° ESE visible
29 Sep 10.4 03:45:02 32° S 03:45:02 32° S 03:54:16 10° SSE visible
29 Sep 10.8 05:42:33 16° WSW 05:45:43 17° SW 05:53:46 10° SSW visible
29 Sep 10.0 20:52:30 10° S 20:54:10 14° SSE 20:54:10 14° SSE visible
30 Sep 10.8 03:15:14 25° SSE 03:15:14 25° SSE 03:21:13 10° SE visible
30 Sep 10.8 05:12:45 19° SW 05:12:49 19° SW 05:21:40 10° S visible
30 Sep 10.0 20:21:25 10° SSE 20:23:47 13° SE 20:23:47 13° SE visible
30 Sep 10.2 22:20:13 10° SW 22:21:15 15° SW 22:21:15 15° SW visible
01 Oct 11.2 02:45:27 17° SE 02:45:27 17° SE 02:48:05 10° SE visible
01 Oct 10.9 04:42:58 19° SSW 04:42:58 19° SSW 04:49:20 10° S visible
01 Oct 9.8 21:48:16 10° SW 21:50:46 22° SSW 21:50:46 22° SSW visible
02 Oct 11.1 04:13:12 16° S 04:13:12 16° S 04:16:49 10° S visible
02 Oct 9.4 21:16:24 10° SSW 21:20:12 26° S 21:20:12 26° S visible
03 Oct 11.3 03:43:25 11° S 03:43:25 11° S 03:44:09 10° SSE visible
03 Oct 9.4 20:44:37 10° SSW 20:49:33 24° SSE 20:49:33 24° SSE visible
03 Oct 10.3 22:45:51 10° WSW 22:47:00 16° SW 22:47:00 16° SW visible
04 Oct 9.4 20:12:55 10° SSW 20:17:15 20° SE 20:18:50 19° SE visible
04 Oct 9.7 22:13:45 10° SW 22:16:17 24° SW 22:16:17 24° SW visible
05 Oct 9.5 19:41:23 10° S 19:44:58 17° SE 19:48:04 13° ESE visible
05 Oct 9.3 21:41:43 10° SW 21:45:30 31° SSW 21:45:30 31° SSW visible
